Middletown, OH

4:51 PM EDT on July 26, 2017 (GMT -0400)
Hook Field Municipal

Weather History for KMWO - February, 2013

Change the Weather History Date:

Thursday, February 7, 2013

  Actual Average (KFFO) Record (KFFO)
Temperature  
Mean Temperature 42 °F -  
Max Temperature 55 °F 38 °F 60 °F (2017)
Min Temperature 29 °F 22 °F -5 °F (2007)
Degree Days  
Heating Degree Days 23    
Moisture  
Dew Point 34 °F    
Average Humidity 80    
Maximum Humidity 98    
Minimum Humidity 50    
Precipitation  
Precipitation 0.00 in - - ()
Sea Level Pressure  
Sea Level Pressure 30.05 in    
Wind  
Wind Speed 3 mph (East)    
Max Wind Speed 9 mph    
Max Gust Speed -    
Visibility 9 miles    
Events      
Averages and records for this station are not official NWS values.
T = Trace of Precipitation, MM = Missing Value Source: NWS Daily Summary

Daily Weather History Graph

Daily Weather History Graph

Search for Another Location

Airport or City:

Trip Planner

Search our weather history database for the weather conditions in past years. The results will help you decide how hot, cold, wet, or windy it might be!

Date:

Astronomy

Feb. 07, 2013 Rise Set
Actual Time 7:38 AM EST 6:05 PM EST
Civil Twilight 7:10 AM EST 6:33 PM EST
Nautical Twilight 6:39 AM EST 7:05 PM EST
Astronomical Twilight 6:07 AM EST 7:36 PM EST
Moon 5:17 AM EST (2/7) 3:29 PM EST (2/7)
Length of Visible Light 11h 22m
Length of Day
10h 26m
Waning Crescent, 9% of the Moon is Illuminated
Feb 7
Waning Crescent
Feb 10
New
Feb 17
First Quarter
Feb 25
Full
Mar 4
Last Quarter

Hourly Weather History & Observations

Time (EST) Temp. Windchill Dew Point Humidity Pressure Visibility Wind Dir Wind Speed Gust Speed Precip Events Conditions
12:15 AM 29.3 °F 25.6 °F 27.5 °F 93% 30.24 in 7.0 mi NNE 3.5 mph - N/A   Clear
12:35 AM 29.1 °F - 27.5 °F 94% 30.23 in 7.0 mi Calm Calm - N/A   Clear
12:55 AM 29.1 °F - 27.5 °F 94% 30.22 in 7.0 mi Calm Calm - N/A   Clear
1:35 AM 30.2 °F - 28.4 °F 93% 30.22 in 7.0 mi Calm Calm - N/A   Clear
1:55 AM 30.2 °F - 29.3 °F 96% 30.21 in 7.0 mi Calm Calm - N/A   Clear
2:15 AM 30.2 °F 26.7 °F 29.7 °F 98% 30.20 in 5.0 mi North 3.5 mph - N/A   Scattered Clouds
2:35 AM 30.2 °F - 28.4 °F 93% 30.21 in 7.0 mi Calm Calm - N/A   Mostly Cloudy
2:55 AM 30.7 °F 27.3 °F 28.8 °F 92% 30.20 in 7.0 mi NNE 3.5 mph - N/A   Overcast
3:15 AM 32.4 °F 29.1 °F 30.9 °F 94% 30.20 in 7.0 mi NE 3.5 mph - N/A   Overcast
3:35 AM 32.4 °F 27.9 °F 30.9 °F 94% 30.20 in 7.0 mi NNE 4.6 mph - N/A   Scattered Clouds
3:55 AM 32.5 °F 29.3 °F 30.7 °F 93% 30.19 in 7.0 mi NE 3.5 mph - N/A   Scattered Clouds
4:15 AM 32.5 °F 28.1 °F 30.6 °F 92% 30.18 in 7.0 mi NE 4.6 mph - N/A   Overcast
4:35 AM 32.5 °F 29.3 °F 30.6 °F 92% 30.18 in 7.0 mi NE 3.5 mph - N/A   Overcast
4:55 AM 32.5 °F 29.3 °F 30.4 °F 92% 30.18 in 7.0 mi NNE 3.5 mph - N/A   Overcast
5:15 AM 32.5 °F 29.3 °F 30.6 °F 92% 30.20 in 7.0 mi North 3.5 mph - N/A   Overcast
5:35 AM 32.5 °F 28.1 °F 30.6 °F 92% 30.20 in 7.0 mi North 4.6 mph - N/A   Overcast
5:55 AM 32.5 °F 29.3 °F 30.6 °F 92% 30.19 in 7.0 mi North 3.5 mph - N/A   Scattered Clouds
6:15 AM 32.5 °F 29.3 °F 30.6 °F 92% 30.19 in 7.0 mi NE 3.5 mph - N/A   Scattered Clouds
6:35 AM 32.4 °F - 30.7 °F 94% 30.18 in 7.0 mi Calm Calm - N/A   Scattered Clouds
6:55 AM 30.2 °F 26.7 °F 28.9 °F 95% 30.17 in 7.0 mi ENE 3.5 mph - N/A   Clear
7:15 AM 30.2 °F - 29.3 °F 96% 30.17 in 7.0 mi Calm Calm - N/A   Scattered Clouds
7:35 AM 32.5 °F 29.3 °F 31.6 °F 96% 30.16 in 7.0 mi NNE 3.5 mph - N/A   Scattered Clouds
7:55 AM 32.5 °F - 31.1 °F 94% 30.15 in 7.0 mi Calm Calm - N/A   Mostly Cloudy
8:15 AM 32.5 °F 29.3 °F 31.1 °F 94% 30.15 in 7.0 mi North 3.5 mph - N/A   Scattered Clouds
8:35 AM 32.5 °F 28.1 °F 31.5 °F 96% 30.15 in 5.0 mi North 4.6 mph - N/A   Clear
8:55 AM 32.5 °F 29.3 °F 31.1 °F 94% 30.15 in 7.0 mi North 3.5 mph - N/A   Clear
9:15 AM 32.5 °F 28.1 °F 30.9 °F 94% 30.15 in 7.0 mi NNE 4.6 mph - N/A   Clear
9:35 AM 35.1 °F 31.0 °F 32.0 °F 89% 30.14 in 7.0 mi NE 4.6 mph - N/A   Clear
9:55 AM 35.2 °F 32.4 °F 31.8 °F 87% 30.13 in 7.0 mi NE 3.5 mph - N/A   Clear
10:15 AM 37.6 °F 35.1 °F 32.7 °F 83% 30.13 in 7.0 mi NE 3.5 mph - N/A   Clear
10:35 AM 40.1 °F 38.0 °F 32.9 °F 75% 30.11 in 10.0 mi East 3.5 mph - N/A   Clear
10:55 AM 41.4 °F 39.4 °F 32.9 °F 72% 30.11 in 10.0 mi ENE 3.5 mph - N/A   Clear
11:15 AM 42.3 °F 39.4 °F 33.8 °F 72% 30.10 in 10.0 mi SE 4.6 mph - N/A   Clear
11:35 AM 46.0 °F 44.8 °F 35.8 °F 67% 30.10 in 10.0 mi SE 3.5 mph - N/A   Clear
11:55 AM 47.7 °F - 36.7 °F 66% 30.09 in 10.0 mi Calm Calm - N/A   Clear
12:15 PM 47.7 °F - 36.0 °F 64% 30.08 in 10.0 mi SSW 3.5 mph - N/A   Clear
12:35 PM 47.7 °F - 35.8 °F 63% 30.07 in 10.0 mi South 4.6 mph - N/A   Clear
12:55 PM 47.8 °F - 35.6 °F 63% 30.04 in 10.0 mi Calm Calm - N/A   Clear
1:15 PM 50.2 °F - 36.7 °F 60% 30.03 in 10.0 mi Calm Calm - N/A   Clear
1:35 PM 52.7 °F - 38.5 °F 58% 30.01 in 10.0 mi SE 3.5 mph - N/A   Clear
1:55 PM 52.7 °F - 38.1 °F 58% 30.00 in 10.0 mi SE 3.5 mph - N/A   Clear
2:15 PM 52.7 °F - 37.4 °F 56% 29.99 in 10.0 mi SE 5.8 mph - N/A   Clear
2:35 PM 52.7 °F - 37.0 °F 55% 29.98 in 10.0 mi Calm Calm - N/A   Clear
2:55 PM 54.0 °F - 37.4 °F 54% 29.97 in 10.0 mi Calm Calm - N/A   Clear
3:15 PM 55.4 °F - 38.1 °F 52% 29.97 in 10.0 mi Calm Calm - N/A   Clear
3:35 PM 55.4 °F - 37.6 °F 51% 29.97 in 10.0 mi SSE 3.5 mph - N/A   Clear
3:55 PM 55.4 °F - 37.2 °F 50% 29.96 in 10.0 mi SE 4.6 mph - N/A   Clear
4:15 PM 55.4 °F - 37.6 °F 51% 29.95 in 10.0 mi South 3.5 mph - N/A   Clear
4:35 PM 55.6 °F - 37.9 °F 52% 29.95 in 10.0 mi SE 4.6 mph - N/A   Clear
4:55 PM 55.4 °F - 38.1 °F 52% 29.94 in 10.0 mi ESE 3.5 mph - N/A   Clear
5:15 PM 55.4 °F - 39.7 °F 56% 29.93 in 10.0 mi East 5.8 mph - N/A   Clear
5:35 PM 53.8 °F - 39.0 °F 57% 29.93 in 10.0 mi ESE 5.8 mph - N/A   Clear
5:55 PM 52.7 °F - 39.2 °F 60% 29.92 in 10.0 mi ESE 3.5 mph - N/A   Clear
6:15 PM 50.2 °F - 39.0 °F 66% 29.92 in 10.0 mi East 4.6 mph - N/A   Clear
6:35 PM 47.7 °F - 38.8 °F 71% 29.92 in 10.0 mi Calm Calm - N/A   Clear
6:55 PM 47.1 °F - 39.9 °F 76% 29.92 in 10.0 mi Calm Calm - N/A   Clear
7:15 PM 40.5 °F - 36.9 °F 87% 29.91 in 10.0 mi Calm Calm - N/A   Clear
7:35 PM 37.6 °F - 35.2 °F 91% 29.90 in 10.0 mi Calm Calm - N/A   Clear
7:55 PM 37.6 °F - 36.0 °F 94% 29.90 in 10.0 mi Calm Calm - N/A   Clear
8:15 PM 37.4 °F - 36.1 °F 95% 29.89 in 10.0 mi Calm Calm - N/A   Clear
8:35 PM 37.4 °F - 36.5 °F 97% 29.87 in 10.0 mi Calm Calm - N/A   Clear
8:55 PM 36.1 °F - 35.6 °F 98% 29.87 in 10.0 mi Calm Calm - N/A   Clear
9:15 PM 38.5 °F 36.1 °F 35.4 °F 89% 29.87 in 10.0 mi SSW 3.5 mph - N/A   Clear
9:35 PM 39.9 °F 37.8 °F 36.7 °F 88% 29.87 in 10.0 mi SSW 3.5 mph - N/A   Clear
9:55 PM 40.1 °F - 36.5 °F 87% 29.85 in 10.0 mi Calm Calm - N/A   Clear
10:15 PM 42.1 °F 39.2 °F 37.2 °F 83% 29.83 in 10.0 mi SSE 4.6 mph - N/A   Clear
10:35 PM 42.1 °F - 37.2 °F 83% 29.83 in 10.0 mi Calm Calm - N/A   Scattered Clouds
10:55 PM 39.6 °F - 36.9 °F 90% 29.83 in 10.0 mi Calm Calm - N/A   Mostly Cloudy
11:15 PM 38.1 °F - 36.1 °F 93% 29.82 in 10.0 mi Calm Calm - N/A   Overcast
11:35 PM 46.0 °F 41.4 °F 41.5 °F 84% 29.82 in 10.0 mi SSW 9.2 mph - N/A   Overcast
11:55 PM 50.2 °F - 41.0 °F 71% 29.81 in 10.0 mi SSW 9.2 mph - N/A   Overcast